Regional Weather Roundup
Issued by NWS

Home | Current Version | Previous Version | Graphics & Text | Print | Product List | Glossary Off
Versions: 1 2 3 4 5 6 7 8 9 10 11 12 13 14 15 16 17 18 19 20 21 22 23 24 25 26 27 28 29 30 31 32 33 34 35 36 37 38 39 40 41 42 43 44 45 46 47 48 49 50

000
ASUS43 KLSX 230959
RWRMO

WEATHER SUMMARY FOR MISSOURI
NATIONAL WEATHER SERVICE SPRINGFIELD MO
500 AM CDT THU OCT 23 2014

NOTE: "FAIR" INDICATES FEW OR NO CLOUDS BELOW 12,000 FEET WITH NO
       SIGNIFICANT WEATHER AND/OR OBSTRUCTIONS TO VISIBILITY.
       CURRENT SKY AND/OR WEATHER CONDITIONS ARE NOT AVAILABLE FOR
       CHILLICOTHE AND FARMINGTON.

MOZ001>031-035>038-043-044-053-054-231100-
...NORTHERN AND WESTERN MISSOURI...

CITY           SKY/WX    TMP DP  RH WIND       PRES   REMARKS
KANSAS CTY INT RAIN      57  56  96 S5        30.10F FOG
KANSAS C DTWN  LGT RAIN  60  55  83 CALM      30.12R
LEE`S SUMMIT   HVY RAIN  56  52  86 SW8       30.12S FOG
ST JOSEPH      CLOUDY    58  58 100 CALM      30.08F
KIRKSVILLE     CLOUDY    48  44  86 S7        30.13F

$$
MOZ066>068-077>081-088>096-101>105-231100-
...SOUTHWEST MISSOURI...

CITY           SKY/WX    TMP DP  RH WIND       PRES   REMARKS
SPRINGFIELD    CLOUDY    53  43  68 SE14      30.13F
JOPLIN         CLOUDY    57  51  80 S8        30.14S

$$
MOZ032>034-039>042-045>050-055>058-069>072-231100-
...CENTRAL MISSOURI...

CITY           SKY/WX    TMP DP  RH WIND       PRES   REMARKS
COLUMBIA       MOCLDY    46  42  86 SE8       30.16S
JEFFERSON CITY MOCLDY    43  40  89 SE5       30.18S
ROLLA          PTCLDY    42  38  85 S7        30.17S
SEDALIA        CLOUDY    55  46  71 S10       30.15R
OSAGE BEACH    MOCLDY    46  41  81 SE6       30.17S

$$
MOZ051-052-059>065-231100-
...EAST CENTRAL MISSOURI...

CITY           SKY/WX    TMP DP  RH WIND       PRES   REMARKS
ST LOUIS INTL  MOCLDY    46  40  79 CALM      30.21R
SPIRIT OF STL  PTCLDY    37  36  96 CALM      30.19F
ST CHARLES     CLEAR     39  38  96 E5        30.20S

$$
MOZ072>076-082>087-097>100-106>115-231100-
...SOUTH CENTRAL AND SOUTHEAST MISSOURI...

CITY           SKY/WX    TMP DP  RH WIND       PRES   REMARKS
CAPE GIRARDEAU FOG       37  36  96 SE3       30.21F VSB 3/4
FARMINGTON     CLEAR     36  34  93 CALM      30.22R
POPLAR BLUFF   PTCLDY    38  35  89 CALM      30.20R
WEST PLAINS    PTCLDY    37  35  92 CALM      30.20S

$$



USA.gov is the U.S. government's official web portal to all federal, state and local government web resources and services.